EN

Hourly Weather Altwi

Today, 16 January, Saturday

Time Temperature Precipitation Wind Pressure Humidity
00:00 -6°C° 0 mm 0 mps 730 mmHg 95%
01:00 -6°C° 0 mm 1 mps 730 mmHg 94%
02:00 -6°C° 0 mm 1 mps 730 mmHg 94%
03:00 -6°C° 0 mm 0 mps 730 mmHg 94%
04:00 -7°C° 0 mm 0 mps 730 mmHg 94%
05:00 -7°C° 0 mm 0 mps 730 mmHg 94%
06:00 -8°C° 0 mm 0 mps 730 mmHg 93%
07:00 -8°C° 0 mm 0 mps 730 mmHg 93%
08:00 -8°C° 0 mm 0 mps 730 mmHg 92%
09:00 -7°C° 0 mm 0 mps 730 mmHg 91%
10:00 -6°C° 0 mm 0 mps 730 mmHg 90%
11:00 -4°C° 0 mm 0 mps 729 mmHg 88%
12:00 -3°C° 0 mm 0 mps 729 mmHg 86%
13:00 -2°C° 0 mm 0 mps 728 mmHg 83%
14:00 -2°C° 0 mm 0 mps 728 mmHg 86%
15:00 -2°C° 0 mm 0 mps 728 mmHg 88%
16:00 -3°C° 0 mm 0 mps 728 mmHg 91%
17:00 -3°C° 0 mm 0 mps 727 mmHg 91%
18:00 -3°C° 0 mm 1 mps 727 mmHg 91%
19:00 -4°C° 0 mm 1 mps 727 mmHg 92%
20:00 -3°C° 0 mm 1 mps 727 mmHg 91%
21:00 -3°C° 0 mm 1 mps 727 mmHg 91%
22:00 -2°C° 0 mm 1 mps 727 mmHg 90%
23:00 -2°C° 0.2 mm 1 mps 726 mmHg 91%

Tomorrow, 17 January, Sunday

Time Temperature Precipitation Wind Pressure Humidity
00:00 -2°C° 0.2 mm 1 mps 726 mmHg 93%
01:00 -1°C° 0.2 mm 1 mps 725 mmHg 94%
02:00 -1°C° 0.6 mm 1 mps 725 mmHg 95%
03:00 -1°C° 0.6 mm 1 mps 724 mmHg 96%
04:00 0°C° 0.6 mm 1 mps 723 mmHg 97%
05:00 0°C° 0.3 mm 1 mps 723 mmHg 98%
06:00 -1°C° 0.3 mm 2 mps 723 mmHg 98%
07:00 -1°C° 0.3 mm 2 mps 723 mmHg 98%
08:00 0°C° 0.2 mm 3 mps 723 mmHg 98%
09:00 0°C° 0.2 mm 3 mps 724 mmHg 98%
10:00 +1°C° 0.2 mm 3 mps 724 mmHg 99%
11:00 +1°C° 0.3 mm 3 mps 724 mmHg 99%
12:00 +1°C° 0.3 mm 3 mps 724 mmHg 99%
13:00 +1°C° 0.3 mm 3 mps 724 mmHg 99%
14:00 +1°C° 0.4 mm 3 mps 724 mmHg 99%
15:00 +2°C° 0.4 mm 2 mps 724 mmHg 99%
16:00 +2°C° 0.4 mm 2 mps 725 mmHg 99%
17:00 +1°C° 0.2 mm 2 mps 725 mmHg 98%
18:00 -1°C° 0.2 mm 2 mps 726 mmHg 98%
19:00 -1°C° 0.2 mm 2 mps 727 mmHg 97%
20:00 +1°C° 0.1 mm 1 mps 728 mmHg 97%
21:00 +1°C° 0.1 mm 1 mps 728 mmHg 97%
22:00 +1°C° 0.1 mm 1 mps 729 mmHg 98%
23:00 0°C° 0 mm 1 mps 729 mmHg 97%

Day after tomorrow, 18 January, Monday

Time Temperature Precipitation Wind Pressure Humidity
00:00 0°C° 0 mm 1 mps 730 mmHg 97%
01:00 -1°C° 0 mm 1 mps 730 mmHg 96%
02:00 -1°C° 0 mm 1 mps 730 mmHg 96%
03:00 -2°C° 0 mm 1 mps 730 mmHg 96%
04:00 -2°C° 0 mm 1 mps 730 mmHg 96%
05:00 -2°C° 0 mm 1 mps 730 mmHg 96%
06:00 -2°C° 0 mm 1 mps 731 mmHg 96%
07:00 -2°C° 0 mm 1 mps 731 mmHg 95%
08:00 -2°C° 0 mm 1 mps 731 mmHg 94%
09:00 -1°C° 0 mm 1 mps 731 mmHg 93%
10:00 -1°C° 0 mm 1 mps 731 mmHg 92%
11:00 0°C° 0 mm 1 mps 731 mmHg 91%
12:00 +1°C° 0 mm 1 mps 731 mmHg 90%
13:00 +2°C° 0 mm 1 mps 731 mmHg 89%
14:00 +2°C° 0 mm 1 mps 730 mmHg 90%
15:00 +2°C° 0 mm 1 mps 730 mmHg 91%
16:00 +1°C° 0 mm 0 mps 730 mmHg 92%
17:00 -1°C° 0 mm 0 mps 730 mmHg 93%
18:00 -2°C° 0 mm 0 mps 731 mmHg 93%
19:00 -3°C° 0 mm 0 mps 731 mmHg 94%
20:00 -3°C° 0 mm 0 mps 731 mmHg 93%
21:00 -4°C° 0 mm 0 mps 730 mmHg 93%
22:00 -4°C° 0 mm 0 mps 730 mmHg 92%
23:00 -4°C° 0 mm 0 mps 730 mmHg 91%

19 January, Tuesday

Time Temperature Precipitation Wind Pressure Humidity
00:00 -4°C° 0 mm 0 mps 730 mmHg 91%
01:00 -3°C° 0 mm 1 mps 729 mmHg 90%
02:00 -4°C° 0 mm 0 mps 729 mmHg 89%
03:00 -4°C° 0 mm 0 mps 728 mmHg 88%
04:00 -4°C° 0 mm 0 mps 728 mmHg 87%
05:00 -3°C° 0 mm 1 mps 727 mmHg 87%
06:00 -3°C° 0 mm 1 mps 727 mmHg 86%
07:00 -4°C° 0 mm 1 mps 727 mmHg 85%
08:00 -2°C° 0 mm 1 mps 727 mmHg 84%
09:00 -1°C° 0 mm 1 mps 726 mmHg 83%
10:00 0°C° 0 mm 1 mps 726 mmHg 82%
11:00 +1°C° 0 mm 1 mps 725 mmHg 83%
12:00 +3°C° 0 mm 1 mps 725 mmHg 84%
13:00 +4°C° 0 mm 1 mps 724 mmHg 85%
14:00 +4°C° 0 mm 1 mps 724 mmHg 85%
15:00 +3°C° 0 mm 1 mps 724 mmHg 85%
16:00 +3°C° 0 mm 1 mps 724 mmHg 86%
17:00 +2°C° 0 mm 1 mps 724 mmHg 85%
18:00 +1°C° 0 mm 1 mps 724 mmHg 84%
19:00 0°C° 0 mm 1 mps 724 mmHg 83%
20:00 -1°C° 0 mm 1 mps 724 mmHg 83%
21:00 -1°C° 0 mm 1 mps 723 mmHg 83%
22:00 -1°C° 0 mm 1 mps 723 mmHg 83%
23:00 -1°C° 0 mm 1 mps 723 mmHg 83%

20 January, Wednesday

Time Temperature Precipitation Wind Pressure Humidity
00:00 -2°C° 0 mm 1 mps 723 mmHg 83%
01:00 -2°C° 0 mm 1 mps 722 mmHg 83%
02:00 -2°C° 0 mm 1 mps 722 mmHg 83%
03:00 -1°C° 0 mm 1 mps 722 mmHg 83%
04:00 -1°C° 0 mm 1 mps 721 mmHg 82%
05:00 -1°C° 0 mm 1 mps 721 mmHg 82%
06:00 -1°C° 0 mm 1 mps 720 mmHg 82%
07:00 -1°C° 0 mm 1 mps 720 mmHg 82%
08:00 0°C° 0 mm 1 mps 720 mmHg 82%
09:00 +1°C° 0 mm 1 mps 719 mmHg 81%
10:00 +1°C° 0 mm 1 mps 719 mmHg 81%
11:00 +2°C° 0 mm 1 mps 719 mmHg 83%
12:00 +3°C° 0 mm 1 mps 718 mmHg 86%
13:00 +4°C° 0 mm 1 mps 718 mmHg 88%
14:00 +4°C° 0 mm 1 mps 717 mmHg 88%
15:00 +4°C° 0 mm 1 mps 717 mmHg 88%
16:00 +3°C° 0 mm 1 mps 716 mmHg 88%
17:00 +2°C° 0 mm 1 mps 716 mmHg 88%
18:00 +2°C° 0 mm 1 mps 716 mmHg 87%
19:00 +1°C° 0 mm 1 mps 716 mmHg 87%
20:00 0°C° 0 mm 1 mps 716 mmHg 87%
21:00 0°C° 0 mm 1 mps 716 mmHg 88%
22:00 0°C° 0 mm 1 mps 715 mmHg 88%
23:00 0°C° 0 mm 1 mps 715 mmHg 88%

21 January, Thursday

Time Temperature Precipitation Wind Pressure Humidity
00:00 0°C° 0 mm 1 mps 715 mmHg 88%
01:00 +1°C° 0 mm 1 mps 715 mmHg 88%
02:00 +1°C° 0 mm 1 mps 715 mmHg 88%
03:00 +1°C° 0 mm 1 mps 714 mmHg 87%
04:00 +1°C° 0 mm 1 mps 714 mmHg 87%
05:00 +1°C° 0 mm 1 mps 714 mmHg 87%
06:00 +1°C° 0 mm 1 mps 714 mmHg 87%
07:00 +1°C° 0 mm 1 mps 714 mmHg 87%
08:00 +2°C° 0 mm 1 mps 714 mmHg 88%
09:00 +3°C° 0 mm 1 mps 715 mmHg 88%
10:00 +3°C° 0 mm 2 mps 715 mmHg 88%
11:00 +3°C° 0.5 mm 2 mps 716 mmHg 91%
12:00 +3°C° 0.5 mm 2 mps 716 mmHg 93%
13:00 +3°C° 0.5 mm 3 mps 717 mmHg 95%
14:00 +3°C° 0.5 mm 2 mps 717 mmHg 96%
15:00 +3°C° 0.5 mm 2 mps 717 mmHg 96%
16:00 +3°C° 0.5 mm 1 mps 717 mmHg 97%
17:00 +3°C° 0 mm 1 mps 717 mmHg 97%
18:00 +3°C° 0 mm 1 mps 717 mmHg 97%
19:00 +2°C° 0 mm 1 mps 717 mmHg 97%
20:00 +1°C° 0 mm 0 mps 717 mmHg 97%
21:00 +1°C° 0 mm 0 mps 717 mmHg 97%
22:00 0°C° 0 mm 0 mps 716 mmHg 97%
23:00 0°C° 0 mm 0 mps 716 mmHg 96%
Show more